Flag for Philippines Weather past 2 weeks in Olongapo, Philippines

Now
79 °F

Passing clouds.


Feels Like: 79 °F
Forecast: 71 / 93 °F
Wind: No wind

Location: Subic Bay Weather Station

Current Time: Mar 5, 2015 at 11:06:35 PM

Latest Report: Mar 5, 2015 at 10:00 PM


Visibility: N/A

Pressure: 29.95 "Hg

Humidity: 37%

Dew point: 50 °F

Location of OlongapoLocation

Historic Weather in Olongapo — Graph

°F

Olongapo temperature yesterday

Maximum temperature yesterday: 91 °F (at 12:00 PM)
Minimum temperature yesterday: 72 °F (at 5:00 AM)
Average temperature yesterday: 81 °F

Past Weeks' High & Low Weather Summary

 TemperatureHumidityPressure
High93 °F (Mar 5, 2:00 PM)100% (Feb 27, 7:00 AM)30.01 "Hg (Feb 27, 7:00 AM)
Low68 °F (Feb 23, 7:00 AM)30% (Mar 2, 4:00 PM)29.77 "Hg (Mar 2, 3:00 PM)
Average80 °F61%29.90 "Hg
* Reported Feb 18 11:00 PM — Mar 5 10:00 PM, Olongapo, Weather by CustomWeather, © 2015

Note: Actual official high and low records may vary slightly from our data, if they occured in-between our weather recording intervals... More about our weather records

Advertising

Olongapo weather history for previous 24 hours

 ConditionsComfort  
Time TempWeatherWind HumidityBarometerVisibility
10:00 PM
Thu, Mar 5
79 °FPassing clouds.No wind37%29.95 "HgN/A
9:00 PM79 °FPassing clouds.13 mph65%29.92 "HgN/A
8:00 PM79 °FPassing clouds.No wind65%29.92 "HgN/A
7:00 PM82 °FPassing clouds.7 mph58%29.89 "HgN/A
6:00 PM84 °FBroken clouds.14 mph55%29.89 "HgN/A
5:00 PM86 °FPartly sunny.15 mph52%29.86 "HgN/A
4:00 PM88 °FPartly sunny.12 mph46%29.86 "HgN/A
3:00 PM93 °FPassing clouds.10 mph36%29.86 "HgN/A
2:00 PM93 °FPassing clouds.16 mph32%29.86 "HgN/A
1:00 PM91 °FScattered clouds.15 mph36%29.89 "HgN/A
12:00 PM90 °FScattered clouds.18 mph38%29.92 "HgN/A
11:00 AM88 °FScattered clouds.15 mph40%29.95 "HgN/A
10:00 AM86 °FScattered clouds.15 mph46%29.98 "HgN/A
9:00 AM82 °FScattered clouds.14 mph55%29.95 "HgN/A
8:00 AM79 °FScattered clouds.1 mph61%29.95 "HgN/A
7:00 AM75 °FScattered clouds.1 mph69%29.92 "HgN/A
6:00 AM75 °FPassing clouds.No wind69%29.92 "HgN/A
5:00 AM75 °FPassing clouds.No wind74%29.89 "HgN/A
3:00 AM73 °FPassing clouds.No wind83%29.89 "HgN/A
2:00 AM73 °FPassing clouds.1 mph78%29.92 "HgN/A
12:00 AM75 °FPassing clouds.1 mph74%29.92 "HgN/A
11:00 PM
Wed, Mar 4
75 °FPassing clouds.No wind83%29.95 "HgN/A
Weather by CustomWeather, © 2015

See weather overviewHow to use our weather pages